| time (UTC) | temp F | wind direction | speed knots | gust knots | rain 1hr in | rain 24hr in | rain mn in | humidity % | barometer mb |
| 20260507084538 | 46 | 290 | 0.0 | 1.7 | 0.01 | 0.23 | 0.01 | 86 | 1007.6 |
| 20260507083038 | 47 | 298 | 1.7 | 3.5 | 0.01 | 0.23 | 0.01 | 87 | 1006.9 |
| 20260507081538 | 47 | 335 | 1.7 | 5.2 | 0.01 | 0.23 | 0.01 | 87 | 1007.0 |
| 20260507080036 | 48 | 0 | 1.7 | 5.2 | 0.01 | 0.23 | 0.01 | 86 | 1006.7 |
| 20260507074543 | 49 | 319 | 1.7 | 6.1 | 0.00 | 0.22 | 0.00 | 86 | 1007.1 |
| 20260507073032 | 49 | 240 | 1.7 | 6.1 | 0.00 | 0.22 | 0.00 | 86 | 1006.7 |
| 20260507071533 | 49 | 0 | 0.9 | 7.0 | 0.00 | 0.22 | 0.00 | 86 | 1006.5 |
| 20260507070036 | 49 | 0 | 0.9 | 3.5 | 0.00 | 0.22 | 0.00 | 86 | 1006.8 |
| 20260507064537 | 49 | 0 | 0.0 | 2.6 | 0.00 | 0.22 | 0.00 | 86 | 1006.2 |
| 20260507063037 | 50 | 223 | 0.0 | 3.5 | 0.00 | 0.22 | 0.00 | 86 | 1006.5 |
| 20260507061534 | 50 | 303 | 0.9 | 5.2 | 0.00 | 0.22 | 0.00 | 86 | 1006.2 |
| 20260507060039 | 50 | 0 | 0.9 | 5.2 | 0.00 | 0.22 | 0.00 | 86 | 1006.3 |
| 20260507054532 | 50 | 0 | 0.9 | 7.0 | 0.00 | 0.22 | 0.00 | 85 | 1006.6 |
| 20260507053032 | 50 | 321 | 0.9 | 7.0 | 0.00 | 0.22 | 0.00 | 85 | 1006.9 |
| 20260507051539 | 50 | 329 | 1.7 | 7.0 | 0.00 | 0.22 | 0.00 | 86 | 1006.7 |
| 20260507050041 | 51 | 0 | 0.9 | 8.7 | 0.00 | 0.22 | 0.00 | 86 | 1006.5 |
| 20260507044534 | 51 | 307 | 2.6 | 7.0 | 0.00 | 0.22 | 0.00 | 85 | 1006.6 |
| 20260507043032 | 51 | 343 | 0.9 | 3.5 | 0.00 | 0.22 | 0.00 | 83 | 1006.5 |
| 20260507041533 | 52 | 67 | 1.7 | 8.7 | 0.00 | 0.22 | 0.00 | 83 | 1006.8 |
| 20260507040034 | 53 | 309 | 2.6 | 8.7 | 0.00 | 0.22 | 0.00 | 83 | 1006.7 |
| 20260507034552 | 54 | 0 | 0.9 | 6.1 | 0.00 | 0.22 | 0.22 | 81 | 1006.3 |
| 20260507033041 | 55 | 0 | 0.0 | 7.8 | 0.01 | 0.22 | 0.22 | 81 | 1006.0 |
| 20260507031535 | 56 | 0 | 0.9 | 7.8 | 0.01 | 0.22 | 0.22 | 78 | 1005.6 |
| 20260507030036 | 57 | 278 | 2.6 | 8.7 | 0.01 | 0.22 | 0.22 | 74 | 1005.8 |
| 20260507024548 | 57 | 303 | 1.7 | 7.0 | 0.01 | 0.22 | 0.22 | 74 | 1005.5 |
| 20260507023037 | 57 | 231 | 1.7 | 4.3 | 0.00 | 0.21 | 0.21 | 74 | 1005.4 |
| 20260507021545 | 57 | 267 | 1.7 | 6.1 | 0.00 | 0.21 | 0.21 | 74 | 1005.1 |
| 20260507020035 | 57 | 0 | 1.7 | 7.8 | 0.00 | 0.21 | 0.21 | 74 | 1005.2 |
| 20260507014540 | 57 | 202 | 0.9 | 7.8 | 0.00 | 0.21 | 0.21 | 74 | 1005.3 |
| 20260507013034 | 57 | 177 | 2.6 | 6.1 | 0.00 | 0.21 | 0.21 | 74 | 1005.3 |
| 20260507011540 | 57 | 0 | 1.7 | 9.6 | 0.00 | 0.21 | 0.21 | 74 | 1005.4 |
| 20260507010032 | 57 | 168 | 0.9 | 6.1 | 0.00 | 0.21 | 0.21 | 74 | 1005.4 |
| 20260507004531 | 57 | 243 | 4.3 | 9.6 | 0.00 | 0.21 | 0.21 | 74 | 1005.5 |
| 20260507003034 | 57 | 0 | 2.6 | 11.3 | 0.00 | 0.21 | 0.21 | 75 | 1005.2 |
| 20260507001541 | 57 | 0 | 0.9 | 5.2 | 0.01 | 0.21 | 0.21 | 75 | 1005.2 |
| 20260507000033 | 57 | 238 | 1.7 | 8.7 | 0.04 | 0.21 | 0.21 | 75 | 1005.1 |
| 20260506234532 | 57 | 326 | 1.7 | 7.8 | 0.06 | 0.21 | 0.21 | 75 | 1005.0 |
| 20260506233033 | 57 | 197 | 1.7 | 7.8 | 0.07 | 0.21 | 0.21 | 75 | 1005.1 |
| 20260506231533 | 57 | 146 | 0.9 | 7.8 | 0.06 | 0.20 | 0.20 | 76 | 1005.1 |
| 20260506230042 | 57 | 198 | 2.6 | 8.7 | 0.04 | 0.17 | 0.17 | 76 | 1005.3 |
| 20260506224534 | 57 | 290 | 1.7 | 7.8 | 0.03 | 0.15 | 0.15 | 77 | 1005.3 |
| 20260506223032 | 57 | 177 | 1.7 | 7.0 | 0.03 | 0.14 | 0.14 | 77 | 1005.3 |
| 20260506221537 | 58 | 250 | 0.9 | 8.7 | 0.03 | 0.14 | 0.14 | 78 | 1005.4 |
| 20260506220040 | 58 | 147 | 1.7 | 7.8 | 0.03 | 0.13 | 0.13 | 78 | 1005.6 |
| 20260506214537 | 58 | 236 | 0.9 | 7.0 | 0.03 | 0.12 | 0.12 | 79 | 1005.5 |
| 20260506213036 | 58 | 185 | 1.7 | 11.3 | 0.04 | 0.11 | 0.11 | 79 | 1005.7 |
| 20260506211540 | 58 | 238 | 3.5 | 8.7 | 0.05 | 0.11 | 0.11 | 80 | 1005.9 |
| 20260506210032 | 59 | 156 | 4.3 | 13.9 | 0.05 | 0.10 | 0.10 | 81 | 1006.0 |
| 20260506204533 | 59 | 166 | 2.6 | 11.3 | 0.04 | 0.09 | 0.09 | 81 | 1006.2 |
| 20260506203032 | 60 | 280 | 1.7 | 8.7 | 0.02 | 0.07 | 0.07 | 82 | 1006.1 |
| 20260506201532 | 61 | 0 | 1.7 | 6.1 | 0.02 | 0.06 | 0.06 | 83 | 1006.3 |
| 20260506200032 | 61 | 156 | 0.9 | 7.0 | 0.02 | 0.05 | 0.05 | 83 | 1006.2 |
| 20260506194538 | 62 | 169 | 0.9 | 9.6 | 0.03 | 0.05 | 0.05 | 84 | 1006.3 |
| 20260506193034 | 62 | 181 | 0.0 | 7.0 | 0.04 | 0.05 | 0.05 | 83 | 1006.2 |
| 20260506191534 | 62 | 0 | 0.0 | 0.9 | 0.04 | 0.04 | 0.04 | 83 | 1006.0 |
| 20260506190032 | 63 | 0 | 0.9 | 2.6 | 0.03 | 0.03 | 0.03 | 84 | 1006.5 |
| 20260506184531 | 64 | 300 | 1.7 | 5.2 | 0.01 | 0.01 | 0.01 | 82 | 1006.6 |
| 20260506183034 | 66 | 263 | 0.9 | 7.8 | 0.00 | 0.00 | 0.00 | 77 | 1006.7 |
| 20260506181536 | 68 | 259 | 2.6 | 11.3 | 0.00 | 0.00 | 0.00 | 68 | 1006.7 |
| 20260506180033 | 69 | 239 | 3.5 | 13.0 | 0.00 | 0.00 | 0.00 | 64 | 1006.4 |
| 20260506174534 | 71 | 242 | 5.2 | 13.0 | 0.00 | 0.00 | 0.00 | 64 | 1006.7 |
| 20260506173032 | 71 | 224 | 3.5 | 18.2 | 0.00 | 0.00 | 0.00 | 63 | 1006.5 |
| 20260506171533 | 72 | 228 | 5.2 | 20.0 | 0.00 | 0.00 | 0.00 | 63 | 1006.7 |
| 20260506170036 | 71 | 221 | 5.2 | 16.5 | 0.00 | 0.00 | 0.00 | 60 | 1006.9 |
| 20260506164532 | 71 | 207 | 3.5 | 12.2 | 0.00 | 0.00 | 0.00 | 65 | 1007.0 |
| 20260506163035 | 70 | 158 | 3.5 | 9.6 | 0.00 | 0.00 | 0.00 | 62 | 1007.2 |
| 20260506161535 | 70 | 226 | 4.3 | 12.2 | 0.00 | 0.00 | 0.00 | 68 | 1007.4 |
| 20260506160035 | 69 | 256 | 3.5 | 14.8 | 0.00 | 0.00 | 0.00 | 64 | 1007.9 |
| 20260506154539 | 69 | 292 | 2.6 | 11.3 | 0.00 | 0.00 | 0.00 | 69 | 1008.1 |
| 20260506153041 | 69 | 242 | 4.3 | 13.0 | 0.00 | 0.00 | 0.00 | 69 | 1008.5 |
| 20260506151534 | 69 | 153 | 5.2 | 13.9 | 0.00 | 0.00 | 0.00 | 68 | 1008.7 |
| 20260506150040 | 69 | 243 | 1.7 | 12.2 | 0.00 | 0.00 | 0.00 | 67 | 1008.5 |
| 20260506144552 | 69 | 139 | 2.6 | 13.9 | 0.00 | 0.00 | 0.00 | 70 | 1008.6 |
| 20260506143041 | 68 | 155 | 2.6 | 13.9 | 0.00 | 0.00 | 0.00 | 68 | 1008.4 |
| 20260506141533 | 67 | 236 | 7.0 | 16.5 | 0.00 | 0.00 | 0.00 | 73 | 1008.3 |
| 20260506140053 | 66 | 262 | 3.5 | 10.4 | 0.00 | 0.00 | 0.00 | 73 | 1008.4 |
| 20260506134536 | 65 | 166 | 3.5 | 7.8 | 0.00 | 0.00 | 0.00 | 77 | 1008.5 |
| 20260506133032 | 64 | 152 | 4.3 | 11.3 | 0.00 | 0.00 | 0.00 | 78 | 1008.9 |
| 20260506131538 | 64 | 295 | 2.6 | 9.6 | 0.00 | 0.00 | 0.00 | 78 | 1009.1 |
| 20260506130054 | 64 | 135 | 1.7 | 9.6 | 0.00 | 0.00 | 0.00 | 78 | 1008.9 |
| 20260506124534 | 64 | 217 | 4.3 | 8.7 | 0.00 | 0.00 | 0.00 | 78 | 1009.0 |
| 20260506123039 | 63 | 233 | 4.3 | 9.6 | 0.00 | 0.00 | 0.00 | 79 | 1008.9 |
| 20260506121534 | 63 | 191 | 3.5 | 9.6 | 0.00 | 0.00 | 0.00 | 79 | 1009.1 |
| 20260506120034 | 62 | 136 | 1.7 | 7.0 | 0.00 | 0.00 | 0.00 | 80 | 1009.1 |
| 20260506114533 | 61 | 257 | 2.6 | 10.4 | 0.00 | 0.00 | 0.00 | 81 | 1009.3 |
| 20260506113037 | 61 | 247 | 1.7 | 6.1 | 0.00 | 0.00 | 0.00 | 81 | 1009.4 |
| 20260506111534 | 60 | 242 | 1.7 | 8.7 | 0.00 | 0.00 | 0.00 | 81 | 1009.6 |
| 20260506110040 | 60 | 172 | 1.7 | 6.1 | 0.00 | 0.00 | 0.00 | 82 | 1009.2 |
| 20260506104538 | 59 | 139 | 2.6 | 7.0 | 0.00 | 0.00 | 0.00 | 82 | 1009.4 |
| 20260506103033 | 59 | 160 | 1.7 | 6.1 | 0.00 | 0.00 | 0.00 | 82 | 1009.4 |
| 20260506101537 | 59 | 174 | 2.6 | 7.0 | 0.00 | 0.00 | 0.00 | 82 | 1009.4 |
| 20260506100037 | 59 | 153 | 0.9 | 5.2 | 0.00 | 0.00 | 0.00 | 82 | 1009.5 |
| 20260506094534 | 59 | 204 | 1.7 | 6.1 | 0.00 | 0.00 | 0.00 | 82 | 1009.2 |
| 20260506093035 | 59 | 215 | 0.9 | 8.7 | 0.00 | 0.00 | 0.00 | 81 | 1009.3 |
| 20260506091533 | 59 | 248 | 1.7 | 7.0 | 0.00 | 0.00 | 0.00 | 81 | 1009.3 |
| 20260506090041 | 60 | 200 | 2.6 | 7.0 | 0.00 | 0.00 | 0.00 | 80 | 1009.3 |